カタログに戻る

STARLINK-6077

運用中通信VLEO
NORAD 56097·PAYLOAD·🇺🇸 United States

打ち上げ Mar 29, 2023 から Cape Canaveral Space Force Station

Loading…

次のパス (今後24時間)

TLE

最新Source: CelesTrak SupGP

元期: Sep 15, 2026, 02:42 UTC

1 56097C 23046E   26258.11298611  .00057666  00000+0  20895-2 0  2587
2 56097  43.0010 124.5216 0001806 266.2228 154.8126 15.27536307    18

AllMySatでSTARLINK-6077をリアルタイム追跡

Download on the App Store